[ ตารางข้อมูล ] [ Min-Max ] [ วันนี้4 ] [ วันนี้2 ] [ เทียบ3วัน A ] [ เทียบ4วัน B ]   

วันนี้2   [ ◀ ช่วงเก่ากว่า ] [ ช่วงที่ 240 ] [ ช่วงใหม่กว่า ▶ ] [ ล่าสุด ]    [ 3 ชั่วโมง ] [ 6 ชั่วโมง ] [ 12 ชั่วโมง ] [ 24 ชั่วโมง ]   วันนี้2

อุณภูมิตู้ Knockdown4529  ราย 6 ชั่วโมง  ที่วัดได้ ในช่วงวันเวลา 07/03/2026 (13:18) ถึง 07/03/2026 (19:18) 
ความชื้นในตู้ Knockdown4529  ราย 6 ชั่วโมง  ที่วัดได้ ในช่วงวันเวลา 07/03/2026 (13:18) ถึง 07/03/2026 (19:18) 

 
DS18B20SHTC3 
IDDate d/m/Y & Timedata1
สูง
data2
ต่ำ
data3
นอก
temp
pcb
hum
pcb
Time
 330  07/03/2026 19:16:39  29.5  29.6  28.4  29.5  68.7  19:16 
 329  07/03/2026 19:11:56  29.5  29.6  28.4  29.4  68.6  19:11 
 328  07/03/2026 19:07:15  29.6  29.6  28.5  29.4  68.5  19:07 
 327  07/03/2026 19:02:33  29.6  29.6  28.5  29.6  68.5  19:02 
 326  07/03/2026 18:57:52  29.6  29.7  28.5  29.6  68.3  18:57 
 325  07/03/2026 18:53:10  29.6  29.7  28.5  29.6  68.4  18:53 
 324  07/03/2026 18:48:29  29.6  29.7  28.6  29.7  68.0  18:48 
 323  07/03/2026 18:43:48  29.7  29.8  28.6  29.7  68.0  18:43 
 322  07/03/2026 18:39:06  29.7  29.8  28.7  29.7  67.8  18:39 
 321  07/03/2026 18:34:24  29.7  29.8  28.7  29.7  67.6  18:34 
 320  07/03/2026 18:29:43  29.8  29.8  28.8  29.9  67.5  18:29 
 319  07/03/2026 18:25:00  29.8  29.8  28.8  29.8  67.5  18:25 
 318  07/03/2026 18:20:18  29.9  29.9  28.9  29.9  67.3  18:20 
 317  07/03/2026 18:15:37  29.9  29.9  28.9  29.9  67.3  18:15 
 316  07/03/2026 18:10:53  29.9  30.0  28.9  29.9  67.3  18:10 
 315  07/03/2026 18:06:12  30.0  30.0  29.0  30.0  67.4  18:06 
 314  07/03/2026 18:01:30  30.0  30.0  29.0  30.1  67.7  18:01 
 313  07/03/2026 17:56:48  30.1  30.1  29.1  29.9  67.3  17:56 
 312  07/03/2026 17:52:06  30.1  30.1  29.2  30.2  67.3  17:52 
 311  07/03/2026 17:47:25  30.2  30.2  29.4  30.2  67.2  17:47 
 310  07/03/2026 17:42:44  30.2  30.2  29.4  30.2  67.1  17:42 
 309  07/03/2026 17:38:02  30.2  30.2  29.4  30.1  67.2  17:38 
 308  07/03/2026 17:33:20  30.2  30.2  29.4  30.5  67.1  17:33 
 307  07/03/2026 17:28:35  30.3  30.3  29.5  30.4  67.1  17:28 

Data every 5 minute.


ใช้เวลาประมวลผล 0.00304 วินาที